Leeuwarden, Netherlands

9:09 AM CET on February 20, 2018 (GMT +0100)
Leeuwarden Air Base

Weather History for EHLW - December, 2013

Change the Weather History Date:

Saturday, December 14, 2013

  Actual Average Record
Temperature  
Mean Temperature 42 °F -  
Max Temperature 47 °F 40 °F 53 °F (1998)
Min Temperature 36 °F 32 °F 19 °F (2001)
Degree Days  
Heating Degree Days 24    
Moisture  
Dew Point 40 °F    
Average Humidity 94    
Maximum Humidity 100    
Minimum Humidity 79    
Precipitation  
Precipitation 0.00 in - - ()
Sea Level Pressure  
Sea Level Pressure 30.15 in    
Wind  
Wind Speed 9 mph ()    
Max Wind Speed 21 mph    
Max Gust Speed 30 mph    
Visibility 4.2 miles    
Events Rain    
Averages and records for this station are not official NWS values.
T = Trace of Precipitation, MM = Missing Value Source: Averaged Metar Reports

Daily Weather History Graph

Daily Weather History Graph

Search for Another Location

Airport or City:

Trip Planner

Search our weather history database for the weather conditions in past years. The results will help you decide how hot, cold, wet, or windy it might be!

Date:

Astronomy

Dec. 14, 2013 Rise Set
Actual Time 8:44 AM CET 4:18 PM CET
Civil Twilight 8:01 AM CET 5:01 PM CET
Nautical Twilight 7:16 AM CET 5:46 PM CET
Astronomical Twilight 6:34 AM CET 6:28 PM CET
Moon 2:46 PM CET (12/14) 5:32 AM CET (12/14)
Length of Visible Light 8h 59m
Length of Day
7h 34m
Waxing Gibbous, 92% of the Moon is Illuminated
Dec 14
Waxing Gibbous
Dec 17
Full
Dec 25
Last Quarter
Jan 1
New
Jan 8
First Quarter

Hourly Weather History & Observations

Time (CET) Temp. Windchill Dew Point Humidity Pressure Visibility Wind Dir Wind Speed Gust Speed Precip Events Conditions
12:18 AM 35.6 °F 28.0 °F 35.6 °F 100% 30.09 in 3.1 mi South 10.4 mph - N/A   Overcast
12:25 AM 37.4 °F 30.3 °F 35.6 °F 93% 30.09 in - South 10.4 mph - N/A   Overcast
12:48 AM 37.4 °F 30.3 °F 35.6 °F 93% 30.09 in 3.1 mi South 10.4 mph - N/A   Overcast
12:55 AM 37.4 °F 30.3 °F 35.6 °F 93% 30.09 in 3.1 mi South 10.4 mph - N/A   Overcast
1:00 AM 37 °F - 35 °F 92% 30.10 in 3 mi South 8.9 mph - -   Mist
1:08 AM 37.4 °F 30.3 °F 35.6 °F 93% 30.09 in 3.1 mi South 10.4 mph - N/A   Mostly Cloudy
1:25 AM 37.4 °F 30.3 °F 35.6 °F 93% 30.09 in 3.7 mi South 10.4 mph - N/A   Overcast
1:55 AM 37.4 °F 30.3 °F 35.6 °F 93% 30.09 in 3.7 mi SSW 10.4 mph - N/A   Mostly Cloudy
2:16 AM 39.2 °F 33.6 °F 37.4 °F 93% 30.09 in 3.7 mi South 8.1 mph - N/A   Mostly Cloudy
2:20 AM 39.2 °F 33.0 °F 37.4 °F 93% 30.09 in 4.3 mi SSW 9.2 mph - N/A   Mostly Cloudy
2:25 AM 39.2 °F 33.0 °F 37.4 °F 93% 30.09 in 4.3 mi SSW 9.2 mph - N/A   Overcast
2:47 AM 39.2 °F 32.5 °F 37.4 °F 93% 30.09 in 2.5 mi SSW 10.4 mph - N/A   Heavy Drizzle
2:55 AM 39.2 °F 32.5 °F 37.4 °F 93% 30.09 in - SSW 10.4 mph - N/A Rain Heavy Drizzle
3:25 AM 39.2 °F 32.5 °F 37.4 °F 93% 30.09 in 1.7 mi SSW 10.4 mph - N/A Rain Light Rain
3:55 AM 39.2 °F 32.5 °F 37.4 °F 93% 30.09 in 1.6 mi SSW 10.4 mph - N/A   Drizzle
4:25 AM 39.2 °F 33.0 °F 39.2 °F 100% 30.09 in 1.9 mi SSW 9.2 mph - N/A Rain Light Rain
4:55 AM 39.2 °F 33.6 °F 39.2 °F 100% 30.09 in - SW 8.1 mph - N/A Rain Light Rain
5:16 AM 39.2 °F 33.6 °F 39.2 °F 100% 30.09 in 1.8 mi SSW 8.1 mph - N/A Rain Light Rain
5:25 AM 39.2 °F 35.0 °F 39.2 °F 100% 30.09 in 1.7 mi SSW 5.8 mph - N/A Rain Light Rain
5:33 AM 39.2 °F 35.9 °F 39.2 °F 100% 30.09 in 1.7 mi SW 4.6 mph - N/A Rain Light Rain
5:37 AM 39.2 °F 35.9 °F 39.2 °F 100% 30.09 in 1.7 mi SW 4.6 mph - N/A Rain Light Rain
5:55 AM 39.2 °F 34.2 °F 39.2 °F 100% 30.09 in 1.6 mi SSW 6.9 mph - N/A Rain Light Rain Showers
5:56 AM 41.0 °F 35.8 °F 39.2 °F 93% 30.09 in 1.6 mi SSW 8.1 mph - N/A Rain Light Rain Showers
6:03 AM 41.0 °F 35.8 °F 39.2 °F 93% 30.09 in 1.5 mi SSW 8.1 mph - N/A Rain Light Rain Showers
6:07 AM 41.0 °F 35.8 °F 41.0 °F 100% 30.09 in 1.5 mi SSW 8.1 mph - N/A Rain Light Rain
6:08 AM 41.0 °F 36.4 °F 41.0 °F 100% 30.09 in 1.5 mi SSW 6.9 mph - N/A Rain Light Rain
6:25 AM 41.0 °F 35.8 °F 41.0 °F 100% 30.09 in 1.4 mi South 8.1 mph - N/A Rain Light Rain
6:55 AM 41.0 °F 37.1 °F 41.0 °F 100% 30.12 in 1.6 mi South 5.8 mph - N/A   Drizzle
7:00 AM 41 °F - 40 °F 96% 30.12 in 1 mi South 6.7 mph - - Rain Light Drizzle
7:08 AM 41.0 °F 36.4 °F 41.0 °F 100% 30.12 in 1.6 mi South 6.9 mph - N/A   Drizzle
7:12 AM 41.0 °F 36.4 °F 41.0 °F 100% 30.12 in 1.6 mi South 6.9 mph - N/A   Light Drizzle
7:13 AM 41.0 °F 36.4 °F 41.0 °F 100% 30.12 in 1.7 mi South 6.9 mph - N/A   Light Drizzle
7:25 AM 41.0 °F 36.4 °F 41.0 °F 100% 30.12 in 1.6 mi SSW 6.9 mph - N/A   Light Drizzle
7:55 AM 41.0 °F 36.4 °F 41.0 °F 100% 30.12 in 1.6 mi South 6.9 mph - N/A   Overcast
8:02 AM 41.0 °F 36.4 °F 41.0 °F 100% 30.12 in 1.7 mi South 6.9 mph - N/A Rain Light Rain
8:19 AM 41.0 °F 35.8 °F 41.0 °F 100% 30.12 in 1.7 mi SSW 8.1 mph - N/A   Overcast
8:25 AM 41.0 °F 35.8 °F 41.0 °F 100% 30.12 in 1.7 mi SSW 8.1 mph - N/A   Overcast
8:32 AM 41.0 °F 36.4 °F 41.0 °F 100% 30.15 in 1.7 mi SW 6.9 mph - N/A   Overcast
8:55 AM 42.8 °F 38.6 °F 41.0 °F 93% 30.15 in 1.8 mi SSW 6.9 mph - N/A   Overcast
9:14 AM 42.8 °F 38.0 °F 41.0 °F 93% 30.15 in 1.9 mi SW 8.1 mph - N/A   Overcast
9:18 AM 42.8 °F 38.6 °F 41.0 °F 93% 30.15 in 1.9 mi SW 6.9 mph - N/A   Mostly Cloudy
9:25 AM 42.8 °F 38.6 °F 42.8 °F 100% 30.15 in - SW 6.9 mph - N/A   Mostly Cloudy
9:29 AM 42.8 °F 38.6 °F 42.8 °F 100% 30.15 in - SW 6.9 mph - N/A   Mostly Cloudy
9:32 AM 42.8 °F 38.6 °F 42.8 °F 100% 30.15 in - SW 6.9 mph - N/A   Overcast
9:45 AM 42.8 °F 38.6 °F 42.8 °F 100% 30.18 in 3.1 mi SW 6.9 mph - N/A   Mostly Cloudy
9:55 AM 42.8 °F 38.6 °F 42.8 °F 100% 30.18 in 3.1 mi SW 6.9 mph - N/A   Overcast
10:01 AM 42.8 °F 38.6 °F 42.8 °F 100% 30.18 in 3.1 mi SW 6.9 mph - N/A   Mostly Cloudy
10:25 AM 44.6 °F 41.4 °F 42.8 °F 93% 30.18 in 4.3 mi WSW 5.8 mph - N/A   Mostly Cloudy
10:26 AM 44.6 °F 41.4 °F 42.8 °F 93% 30.18 in 5.0 mi WSW 5.8 mph - N/A   Mostly Cloudy
10:35 AM 44.6 °F 40.7 °F 44.6 °F 100% 30.18 in 5.0 mi WSW 6.9 mph - N/A   Mostly Cloudy
10:36 AM 44.6 °F 40.7 °F 44.6 °F 100% 30.18 in 5.6 mi West 6.9 mph - N/A   Overcast
10:43 AM 46.4 °F 42.4 °F 44.6 °F 93% 30.18 in 5.6 mi West 8.1 mph - N/A   Overcast
10:55 AM 46.4 °F 41.9 °F 44.6 °F 93% 30.18 in 5.6 mi West 9.2 mph - N/A   Mostly Cloudy
10:59 AM 46.4 °F 41.9 °F 44.6 °F 93% 30.21 in 5.6 mi West 9.2 mph - N/A   Mostly Cloudy
11:25 AM 46.4 °F 42.9 °F 44.6 °F 93% 30.21 in 6.2 mi West 6.9 mph - N/A   Unknown
11:55 AM 46.4 °F 42.4 °F 44.6 °F 93% 30.21 in 6.2 mi West 8.1 mph - N/A   Unknown
12:25 PM 46.4 °F 41.5 °F 42.8 °F 87% 30.21 in 6.2 mi West 10.4 mph - N/A   Unknown
12:55 PM 46.4 °F 41.1 °F 42.8 °F 87% 30.21 in 6.2 mi West 11.5 mph - N/A   Unknown
1:00 PM 47 °F - 43 °F 79% 30.23 in 9 mi West 11.2 mph - -   Partly Cloudy
1:25 PM 46.4 °F 41.1 °F 42.8 °F 87% 30.21 in 6.2 mi West 11.5 mph - N/A   Partly Cloudy
1:55 PM 46.4 °F 40.7 °F 42.8 °F 87% 30.24 in 6.2 mi West 12.7 mph - N/A   Partly Cloudy
2:25 PM 46.4 °F 41.9 °F 42.8 °F 87% 30.24 in 6.2 mi WSW 9.2 mph - N/A   Scattered Clouds
2:29 PM 46.4 °F 41.9 °F 42.8 °F 87% 30.24 in 6.2 mi WSW 9.2 mph - N/A   Mostly Cloudy
2:38 PM 46.4 °F 41.9 °F 41.0 °F 81% 30.24 in 6.2 mi WSW 9.2 mph - N/A   Partly Cloudy
2:55 PM 44.6 °F 40.2 °F 41.0 °F 87% 30.24 in 6.2 mi WSW 8.1 mph - N/A   Unknown
3:25 PM 44.6 °F 40.2 °F 41.0 °F 87% 30.24 in 6.2 mi SW 8.1 mph - N/A   Partly Cloudy
3:55 PM 42.8 °F 37.5 °F 41.0 °F 93% 30.24 in 6.2 mi SW 9.2 mph - N/A   Unknown
4:25 PM 42.8 °F 37.5 °F 39.2 °F 87% 30.24 in 6.2 mi SW 9.2 mph - N/A   Partly Cloudy
4:55 PM 41.0 °F 36.4 °F 39.2 °F 93% 30.24 in 6.2 mi South 6.9 mph - N/A   Unknown
5:25 PM 39.2 °F 33.6 °F 37.4 °F 93% 30.24 in 6.2 mi South 8.1 mph - N/A   Unknown
5:55 PM 41.0 °F 34.7 °F 39.2 °F 93% 30.24 in 6.2 mi South 10.4 mph - N/A   Unknown
6:09 PM 41.0 °F 35.2 °F 37.4 °F 87% 30.24 in 6.2 mi South 9.2 mph - N/A   Scattered Clouds
6:25 PM 41.0 °F 34.3 °F 37.4 °F 87% 30.24 in 6.2 mi South 11.5 mph - N/A   Scattered Clouds
6:29 PM 41.0 °F 34.3 °F 39.2 °F 93% 30.24 in 6.2 mi South 11.5 mph - N/A   Unknown
6:55 PM 41.0 °F 33.5 °F 39.2 °F 93% 30.21 in 6.2 mi South 13.8 mph - N/A   Unknown
7:00 PM 41 °F - 39 °F 88% 30.23 in 12 mi South 13.4 mph - -   Partly Cloudy
7:25 PM 41.0 °F 33.5 °F 39.2 °F 93% 30.21 in 6.2 mi South 13.8 mph - N/A   Mostly Cloudy
7:55 PM 41.0 °F 33.1 °F 39.2 °F 93% 30.21 in 6.2 mi South 15.0 mph - N/A   Overcast
8:25 PM 42.8 °F 35.4 °F 39.2 °F 87% 30.21 in 6.2 mi South 15.0 mph - N/A   Overcast
8:55 PM 42.8 °F 34.8 °F 39.2 °F 87% 30.18 in 6.2 mi South 17.3 mph 29.9 mph N/A   Partly Cloudy
9:25 PM 42.8 °F 34.8 °F 39.2 °F 87% 30.18 in 6.2 mi South 17.3 mph - N/A   Mostly Cloudy
9:55 PM 42.8 °F 34.8 °F 39.2 °F 87% 30.15 in 6.2 mi South 17.3 mph - N/A   Overcast
10:25 PM 42.8 °F 34.8 °F 39.2 °F 87% 30.15 in 6.2 mi South 17.3 mph - N/A   Mostly Cloudy
10:55 PM 42.8 °F 34.0 °F 39.2 °F 87% 30.09 in 6.2 mi South 20.7 mph - N/A   Overcast
11:25 PM 42.8 °F 34.8 °F 39.2 °F 87% 30.12 in 6.2 mi South 17.3 mph - N/A   Overcast
11:55 PM 44.6 °F 37.2 °F 39.2 °F 81% 30.12 in 6.2 mi SSW 17.3 mph - N/A   Overcast